星链-2457 (STARLINK-2457 )

导读

STARLINK-2457是美国SpaceX公司星链星座的一员,于2021年4月29日发射入轨。作为低轨宽带通信卫星,它依托星链组网,为全球偏远、基础设施匮乏地区提供高速低延迟互联网接入,支持视频通话、在线游戏等应用,助力消除数字鸿沟,同时也推动全球卫星通信网络的发展与普及。

基本信息
目录编号:
48321
目录名称:
STARLINK-2457
国际标识:
2021-036AX
轨道中心:
EARTH
卫星名称:
星链-2457
卫星全名:
星链-2457 (STARLINK-2457 )
卫星状态:
在轨 (已飞行1954 天)
发射日期:
2021-04-29 UTC
国别 :
美国 (US)
星等 :
--
轨道信息
数据来源 国际轨道数据
星历时间: 2026-09-03T21:30:38+0800
16小时前
查看轨道信息
半长轴: 6848.851km
偏心率: 0.0000824
轨道倾角: 53.161°
近地点辐角 99.343°
升交点赤经 353.307°
平近点角 260.767°
近地点: 470.149km
远地点: 471.279km
周期: 94.013分钟
每日圈数: 15.31709
详细信息
固有亮度:
5
最大亮度:
2.5
卫星平台:
Starlink V1.0
覆盖范围:
全球
运营商:
太空探索技术公司
运营商所在国:
美国
制造商(研发单位):
太空探索技术公司
制造商所在国:
美国
使用方式:
暂无
卫星简介
星链(Starlink)计划是由太空探索技术公司(SpaceX)提出的一个巨型低轨卫星互联网星座项目,计划在2019年至2024年间在太空搭建由约1.2万颗卫星组成的“星链”网络,其中1584颗将部署在地球上空550千米处的近地轨道,并从2020年开始工作。该卫星仍在工作。
2D轨道图
3D轨道图
轨道高度分析图
轨道倾角分析图
轨道综合分析图
查看轨道综合分析图
交会数据列表
事件ID 空间交会对象 最接近时刻(TCA) 交会距离 交会风险概率(CRP) 交会风险指数(CRI) 操作
CDM_260903-080604-832105-146521
2026-09-03T
08:06:37+0000
2.380 km
极远距离
1.695942E-6 低风险 0.4
CDM_260905-055404-832106-944021
2026-09-05T
05:54:13+0000
2.498 km
极远距离
1.650867E-6 低风险 0.39
CDM_260828-104304-832106-773121
2026-08-28T
10:43:25+0000
2.563 km
极远距离
1.42207E-6 低风险 0.38
CDM_260904-234604-832106-759021
2026-09-04T
23:46:14+0000
2.966 km
极远距离
8.925744E-7 极低风险 0.34